Location: Trout Lake
(45.9980°N, 121.5270°W)
Time: 19:17:26
(UTC-08:00)

SL-08 R/B - Pass Details

Date: 06 December 2023
Orbit: 671 x 734 km, 98.5° (Epoch: 22 February)

Event Time Altitude Azimuth Distance (km) Brightness Sun altitude
Exits shadow 17:45:23 21° 59° (ENE) 1,514 4.4 -14.0°
Maximum altitude 17:47:15 27° 96° (E) 1,288 4.2 -14.4°
Drops below altitude 10° 17:51:12 10° 154° (SSE) 2,125 5.7 -15.0°
Sets 17:53:44 0° 166° (SSE) 3,046 6.7 -15.4°
